Regional Weather Roundup
Issued by NWS

Home | Current Version | Previous Version | Graphics & Text | Print | Product List | Glossary On
Versions: 1 2 3 4 5 6 7 8 9 10 11 12 13 14 15 16 17 18 19 20 21 22 23 24 25 26 27 28 29 30 31 32 33 34 35 36 37 38 39 40 41 42 43 44 45 46 47 48 49 50
000
ASUS43 KBIS 282210
RWRND

NORTH DAKOTA REGIONAL WEATHER ROUNDUP
NATIONAL WEATHER SERVICE BISMARCK ND
500 PM CDT FRI APR 28 2017

NOTE: "FAIR" INDICATES FEW OR NO CLOUDS BELOW 12,000 FEET WITH NO
SIGNIFICANT WEATHER AND/OR OBSTRUCTIONS TO VISIBILITY.


NDZ001>003-009>011-017-282300-
NORTHWEST NORTH DAKOTA

CITY           SKY/WX    TMP DP  RH WIND       PRES   REMARKS
WILLISTON      FAIR      57  15  19 VRB5      30.07S
MINOT          FAIR      56  13  18 VRB3      30.06S
MINOT AFB      SUNNY     55  16  21 NW6       30.05S
$$

NDZ018>021-031>035-040>046-282300-
SOUTHWEST NORTH DAKOTA

CITY           SKY/WX    TMP DP  RH WIND       PRES   REMARKS
BISMARCK       FAIR      57  11  16 N10       30.07R
DICKINSON      FAIR      53  15  22 E8        30.04R
GARRISON         N/A     54  12  18 VRB5      30.06S
HETTINGER ARPT SUNNY     52  20  28 E5        30.06R
$$

NDZ004>008-012>016-024-026-027-054-282300-
NORTHEAST NORTH DAKOTA

CITY           SKY/WX    TMP DP  RH WIND       PRES   REMARKS
GRAND FORKS    SUNNY     56  25  30 N20G25    30.02R
GRND FRKS AFB  SUNNY     53  20  27 N16       30.03R
DEVILS LAKE    FAIR      54  11  18 NW14G21   30.04S
$$

NDZ022-023-025-028>030-036>039-047>053-282300-
SOUTHEAST NORTH DAKOTA

CITY           SKY/WX    TMP DP  RH WIND       PRES   REMARKS
FARGO          SUNNY     53  25  33 N15G26    30.03R
JAMESTOWN      FAIR      54  17  23 N16       30.04R
$$




USA.gov is the U.S. government's official web portal to all federal, state and local government web resources and services.